Location: Litvinovka
(48.6667°N, 34.3500°E)
Time: 00:42:49
(UTC+00:00)

Meteor 2-5 Rocket - Pass Details

Date: 18 September 2020
Orbit: 833 x 912 km, 81.2° (Epoch: 23 October)

Event Time Altitude Azimuth Distance (km) Brightness Sun altitude
Rises 18:38:36 0° 344° (NNW) 3,414 7.7 -26.9°
Reaches altitude 10° 18:41:03 10° 340° (NNW) 2,483 6.9 -27.2°
Maximum altitude 18:46:30 53° 265° (W) 1,047 4.3 -27.9°
Enters shadow 18:48:00 42° 218° (SW) 1,221 4.4 -28.1°
